RH
100 100 84 74 72 82 100 99 83 55 51 43 39 89 84 100 100 100 94 99 63 72 79 69 77 78 85 68 71 74 59 60 72 74 82 100 100 100 64 41 37 26 83 79 56
100 99 70 65 70 79 57 80 98 100 100 94 94 85 71 79 100 100 100 100 100 88 52 61 74 56 56 66 52 41 37 51 75 72 61 72 88 100 75 51 48 39 72 100 57
92 58 59 98 94 100 100 94 55 91 85 74 64 100 100 100 100 95 100 100 100 99 77 77 48 81 76 56 59 43 37 39 42 71 79 75 62 79 99 62 42 56 36 70 86
50 61 72 100 100 100 95 100 99 86 70 58 60 67 98 97 100 66 78 99 100 100 100 88 55 58 44 66 50 38 43 40 39 44 78 91 93 83 87 61 48 48 53 42 59
90 74 96 100 100 100 100 87 58 100 81 74 55 75 97 76 100 91 67 87 100 100 74 68 71 73 66 77 49 38 42 44 54 50 56 86 84 85 70 85 72 65 50 43 41
54 73 100 100 100 100 100 59 59 47 84 88 76 63 100 95 95 99 100 98 100 100 63 62 76 86 100 77 64 38 36 42 51 65 61 62 69 64 71 91 85 80 68 37 35
67 92 61 98 100 99 77 80 67 60 68 88 97 98 100 100 100 100 100 88 70 81 89 85 99 99 98 68 56 53 46 40 40 46 52 71 41 61 85 79 63 79 72 47 35
72 74 99 100 96 98 90 95 78 71 81 95 99 98 96 100 100 88 100 100 98 100 84 100 100 72 58 56 62 51 43 43 43 35 41 46 29 64 65 58 44 64 61 45 42
100 100 100 100 100 100 98 95 100 96 100 100 93 100 95 97 85 96 100 88 82 97 100 100 91 87 65 50 46 41 35 33 30 31 35 34 24 38 46 39 30 38 47 48 38
100 100 100 100 87 73 94 94 91 96 84 66 71 93 99 100 100 100 100 100 100 100 100 88 72 63 53 41 33 29 27 26 21 29 28 26 16 21 31 35 29 33 40 47 43
86 94 100 100 89 75 72 74 81 100 100 91 91 89 85 99 97 100 100 100 100 69 79 61 48 47 39 34 29 27 21 18 19 19 21 16 12 16 20 23 30 29 31 44 69
66 88 79 94 96 72 51 66 97 100 100 100 100 93 93 90 97 100 100 88 61 56 47 43 43 38 26 26 24 20 19 18 16 17 15 12 12 15 17 21 29 30 34 41 66
100 99 91 100 100 100 100 100 100 100 95 100 92 100 92 68 89 88 65 50 50 50 41 34 32 31 31 26 24 18 15 14 12 14 11 12 11 16 20 21 28 28 31 36 56
100 100 99 90 100 100 100 100 100 100 99 100 99 84 90 96 82 88 76 50 39 38 34 34 33 25 23 22 20 12 16 12 10 11 11 13 13 16 21 17 19 24 28 37 68
100 100 92 100 100 100 100 100 100 100 100 100 100 100 100 100 99 88 78 64 54 39 25 23 23 24 20 16 15 12 12 11 10 9 11 14 11 22 18 17 20 22 27 43 65
78 100 87 81 98 100 100 100 100 100 100 94 100 100 99 98 92 84 96 67 39 28 26 21 23 17 14 13 12 11 10 10 9 10 11 17 12 20 18 28 22 28 38 59 74
66 79 66 65 93 82 100 100 100 100 86 88 87 81 77 69 57 50 39 34 28 28 22 21 16 14 10 8 7 7 7 9 9 11 17 12 10 31 25 30 44 37 49 100 100
55 56 60 85 78 80 74 84 87 100 100 100 100 98 83 51 36 27 27 26 29 24 18 14 14 8 7 6 6 6 6 7 9 12 14 13 24 30 42 43 85 58 69 81 100
56 43 60 77 76 88 76 81 78 81 98 98 98 83 56 51 29 25 24 25 25 22 15 10 8 6 5 5 5 5 9 8 9 11 14 22 30 44 74 62 100 90 67 81 79
67 73 96 77 92 90 88 91 93 85 78 76 75 67 54 39 30 26 25 24 19 14 9 8 6 5 4 4 5 8 7 7 8 12 20 33 70 91 100 100 100 99 88 80 79
86 97 98 100 100 100 100 100 95 88 85 82 61 49 44 35 30 24 24 19 16 8 8 6 4 4 5 5 6 9 9 10 12 20 33 74 100 100 100 100 100 71 100 98 96
100 100 100 100 100 100 100 100 100 100 90 70 58 54 40 28 25 24 20 15 9 8 6 5 5 5 5 7 8 11 9 12 17 38 54 100 100 100 100 100 100 100 96 100 100
100 100 100 99 98 94 90 89 91 80 66 60 52 36 25 26 21 17 13 9 7 6 6 6 6 6 8 11 12 14 16 15 18 52 93 100 100 100 100 100 92 100 100 92 100
100 100 100 98 94 96 88 71 77 73 66 57 38 28 25 19 16 11 9 7 7 6 6 6 7 7 9 12 12 15 17 17 25 50 100 100 100 100 100 100 100 95 100 100 100
97 97 97 99 100 86 75 83 76 70 55 40 35 24 19 16 10 8 8 7 6 7 7 7 8 10 12 15 18 19 16 26 62 88 100 100 98 100 100 100 100 100 66 98 100
86 86 84 93 85 82 86 71 59 49 44 40 29 21 17 11 8 8 8 7 6 7 7 8 10 13 13 18 23 23 29 72 100 100 77 100 100 100 100 100 100 100 94 95 100
90 88 80 85 92 93 92 70 58 47 43 38 26 21 12 9 7 8 8 8 8 8 8 9 12 12 18 19 28 36 55 71 76 76 59 87 98 100 100 100 100 100 100 100 99
Wind_Speed
57 55 53 56 49 50 54 58 58 54 53 54 55 57 59 61 60 63 64 63 63 65 66 70 70 72 68 68 70 74 68 60 65 63 61 64 59 64 63 52 49 48 45 57 52
59 61 56 55 55 54 53 59 61 61 65 66 66 62 59 62 64 61 67 69 69 72 73 72 80 72 70 75 72 73 72 65 70 70 64 64 62 60 67 58 52 51 51 60 52
62 61 58 59 58 59 62 60 58 63 63 61 63 71 74 73 66 72 70 73 75 73 76 75 71 69 69 66 72 69 67 69 70 72 71 68 68 66 66 65 59 58 58 58 55
62 61 62 65 64 61 62 65 68 66 62 65 67 68 69 72 72 74 75 72 74 71 75 80 73 72 70 70 73 68 67 69 70 74 75 69 68 67 70 66 67 62 61 60 56
64 61 65 72 71 71 65 70 66 72 68 68 66 70 73 71 78 77 78 77 80 81 84 75 75 77 75 78 76 73 66 66 69 72 75 75 70 69 70 68 68 65 64 59 57
61 65 74 79 78 73 72 75 71 67 71 69 71 69 78 79 77 75 80 85 86 80 82 79 79 77 81 85 84 75 69 66 67 74 78 81 77 81 74 74 69 68 68 62 56
62 63 64 70 78 78 78 73 72 69 68 71 75 77 77 79 78 83 86 81 82 83 86 85 86 85 90 91 85 82 73 70 67 73 84 88 89 81 79 83 77 73 68 63 57
67 67 68 72 76 80 75 75 73 71 71 75 74 71 80 81 82 83 84 90 86 85 84 89 90 90 96 93 90 84 83 77 69 80 79 93 87 86 91 91 85 78 71 67 59
72 73 74 76 77 80 78 77 75 74 77 78 78 81 83 82 85 86 88 87 84 80 84 90 96 99 94 95 91 85 87 83 75 79 85 92 91 91 95 93 83 81 77 68 60
80 78 78 82 84 83 81 81 79 81 83 80 80 81 79 82 87 92 91 81 83 89 95 98 97 89 95 97 92 89 90 86 83 71 89 90 85 89 91 95 86 87 81 67 63
84 83 87 87 87 87 84 88 80 88 87 86 81 82 88 88 87 90 84 91 99 97 97 98 88 86 92 96 95 91 90 90 82 82 92 89 80 76 84 82 83 82 77 74 68
89 89 91 91 92 92 90 90 84 84 85 87 87 86 89 91 90 91 95 102 97 93 90 93 85 91 89 91 94 91 89 85 83 82 89 83 72 70 72 71 70 73 77 82 77
94 96 95 96 97 90 94 83 87 92 94 96 91 97 93 94 91 96 96 96 94 91 94 92 88 90 94 92 92 90 88 82 81 78 80 69 64 60 64 63 72 67 69 74 75
104 99 100 98 92 87 91 91 98 101 93 91 98 93 92 93 94 94 103 101 98 96 98 88 94 94 90 87 89 87 79 78 67 64 58 66 46 52 56 58 60 64 68 69 69
111 104 105 98 97 93 97 102 106 108 102 96 86 89 89 94 101 106 108 113 103 101 93 81 89 89 86 80 79 73 71 67 61 50 47 53 40 47 53 49 54 59 63 65 68
112 109 107 101 105 92 101 106 108 107 108 104 102 104 102 103 109 112 117 119 112 103 92 88 83 81 78 69 68 66 61 55 52 42 36 45 37 41 47 48 50 53 56 61 59
109 107 106 106 105 104 109 108 102 93 102 103 105 105 111 115 109 107 105 106 106 105 89 85 76 70 67 58 63 59 55 49 40 34 33 42 28 39 45 42 43 51 57 60 54
105 101 100 102 104 107 109 110 111 117 92 96 97 97 104 113 108 104 102 101 104 100 85 70 64 62 59 53 54 49 47 42 39 32 35 26 27 39 41 40 33 42 59 61 64
99 97 94 103 103 101 107 107 111 110 107 109 111 115 116 113 108 102 99 99 98 91 75 64 59 51 51 49 45 40 36 43 37 31 28 28 31 34 36 39 45 53 50 63 61
86 84 81 86 87 92 91 97 101 103 103 109 113 116 116 117 111 104 100 95 84 72 62 57 54 45 43 38 33 36 37 33 31 28 31 31 32 33 36 42 56 60 45 51 59
63 64 70 68 69 75 79 86 93 97 100 105 113 114 111 109 103 95 91 80 71 63 57 52 42 34 31 30 31 30 28 26 29 33 39 35 33 31 45 43 53 45 46 47 59
59 61 63 65 69 77 81 85 87 91 97 101 105 106 105 97 94 83 75 66 61 55 46 41 31 26 25 25 28 29 33 35 41 42 44 45 45 41 37 62 55 53 62 56 53
60 64 67 70 70 74 76 75 83 90 94 94 94 95 91 86 72 66 63 57 48 41 35 31 26 22 21 25 27 26 29 38 42 47 49 52 51 58 50 49 57 68 63 53 52
58 63 65 69 70 60 66 72 76 79 81 85 86 82 72 65 60 58 53 42 38 34 29 24 25 24 27 28 32 33 38 40 44 48 56 58 64 62 62 57 55 59 63 56 57
59 63 66 67 65 67 68 69 71 74 76 76 72 64 58 55 52 45 37 34 32 29 26 23 23 26 30 30 32 34 38 44 48 53 61 66 61 59 65 69 60 55 55 59 56
60 56 60 61 60 64 66 69 70 70 68 66 62 57 53 49 40 32 28 28 27 26 22 20 23 32 35 36 38 39 43 49 56 58 59 65 63 59 63 65 62 58 53 51 53
59 51 56 61 63 66 69 69 69 64 61 61 57 52 47 40 28 24 21 22 22 24 20 21 26 30 37 41 43 46 53 56 58 56 56 57 62 64 62 59 58 60 60 58 58
Wind_Direction
269 276 285 288 289 293 288 289 290 294 296 298 299 296 294 293 292 288 284 286 288 291 290 292 296 293 285 282 278 279 279 276 270 264 261 266 268 267 271 274 279 271 263 263 258
269 279 284 286 286 289 294 289 287 291 291 294 292 289 290 293 292 291 288 287 287 290 291 291 290 288 286 277 280 282 278 274 268 266 262 260 263 264 271 272 267 267 260 260 259
271 275 279 281 285 282 284 290 292 288 289 294 295 289 285 287 286 287 289 287 287 288 288 291 288 285 287 284 285 281 279 273 270 267 263 262 263 260 262 268 267 264 263 259 259
272 272 274 275 278 279 282 286 286 287 290 292 292 284 286 287 282 287 286 287 285 286 286 293 286 283 290 293 289 284 282 275 270 266 264 260 259 261 260 262 265 262 259 257 256
269 271 273 275 272 278 282 290 290 280 290 288 294 286 283 283 286 281 285 286 287 290 295 293 293 292 291 290 291 286 279 274 266 264 262 257 256 258 260 258 260 256 258 253 253
268 270 270 272 270 274 287 287 288 288 285 286 288 288 283 283 285 284 284 286 289 291 291 293 295 291 290 291 292 286 280 272 265 261 258 256 255 256 254 256 253 252 254 253 247
277 273 277 273 273 278 283 285 287 288 287 283 281 283 284 280 281 283 284 287 290 288 292 294 294 290 292 294 294 292 286 279 273 263 257 255 253 251 252 254 252 253 255 257 249
279 280 278 275 277 282 283 286 288 288 286 279 276 279 282 278 278 283 278 282 289 286 292 287 288 291 296 294 291 290 285 277 273 268 264 259 260 250 250 252 254 249 250 252 249
276 276 277 277 279 285 285 285 287 285 282 278 280 276 282 280 282 282 285 287 291 288 286 286 288 293 294 290 284 287 281 279 273 270 266 264 265 256 252 252 255 255 249 245 247
277 279 282 278 282 284 286 288 286 284 282 283 285 279 279 279 281 284 287 288 290 288 287 287 291 294 293 288 288 284 281 277 275 268 266 264 269 265 259 255 257 254 252 245 242
277 278 282 282 281 283 285 288 283 279 279 282 279 283 281 284 281 284 283 287 288 289 286 289 292 295 291 290 287 284 280 278 276 269 266 268 270 265 263 259 254 252 248 243 237
277 279 280 283 282 281 284 290 283 281 279 281 279 281 285 281 280 283 283 285 291 292 290 291 298 293 289 287 285 282 281 280 274 270 266 268 268 263 259 256 250 244 239 236 235
283 281 281 285 287 284 280 280 275 279 280 280 282 284 286 285 284 284 285 289 291 295 295 297 296 293 292 290 287 284 281 276 272 269 270 271 265 257 253 248 243 239 235 232 231
277 281 280 283 284 275 276 277 276 279 284 279 283 284 285 285 285 284 290 294 295 297 297 300 295 292 287 287 284 277 277 276 274 268 269 263 258 251 245 242 241 235 230 226 224
274 275 278 275 276 271 269 275 276 277 277 281 282 283 284 284 288 290 292 293 296 296 295 295 295 292 289 284 279 279 275 273 272 270 262 261 252 243 240 237 234 232 226 221 223
269 272 276 274 272 267 270 274 274 275 276 278 280 280 281 284 286 289 290 294 297 297 299 299 296 291 284 280 277 274 272 272 267 264 263 252 242 232 236 230 228 224 220 223 222
266 270 269 270 267 270 269 272 273 280 280 280 279 281 281 283 286 288 291 295 297 299 301 300 296 285 282 278 274 273 271 264 263 255 238 240 230 222 228 223 221 218 215 214 213
265 266 264 265 265 268 271 268 270 272 275 280 282 283 284 285 287 291 295 298 299 300 299 295 291 285 281 275 269 268 267 260 245 233 232 232 217 214 218 210 214 231 216 216 217
263 265 260 262 262 267 266 268 270 271 274 277 280 281 285 287 293 296 299 302 300 298 296 293 291 286 274 268 262 260 250 239 234 224 222 211 207 206 209 203 189 214 211 217 221
262 263 261 261 264 267 268 270 273 275 275 277 278 280 283 289 295 298 301 300 298 295 296 295 287 279 273 265 253 237 239 236 221 213 203 196 186 189 195 201 204 213 220 219 221
254 253 256 262 265 268 270 272 273 274 275 278 279 283 287 292 297 301 301 298 296 297 296 288 282 274 264 250 234 228 221 213 202 194 192 172 176 182 194 204 218 210 210 217 210
250 253 259 264 264 264 269 271 274 276 275 278 283 287 290 296 300 300 297 297 298 294 287 281 275 261 251 231 219 217 209 190 188 184 188 170 177 180 208 205 205 218 218 209 213
256 256 259 261 267 273 277 276 273 277 282 285 287 289 295 298 299 297 297 296 290 282 278 273 262 239 216 207 209 200 195 190 189 180 182 180 188 184 197 201 208 216 221 219 222
256 263 266 266 272 276 278 279 280 281 285 286 288 295 296 300 300 299 296 290 282 277 272 260 244 225 202 201 202 189 187 190 188 183 185 193 193 195 197 207 217 218 216 213 217
261 264 267 270 271 278 285 281 280 284 286 291 297 296 302 303 300 298 292 283 275 270 260 243 225 206 191 188 191 192 187 183 187 186 188 201 198 199 205 211 214 222 217 215 219
262 270 270 272 274 282 282 282 286 287 292 298 298 304 305 301 301 297 285 275 268 259 248 229 210 199 192 184 187 185 183 184 190 198 193 198 203 209 213 215 215 224 228 215 219
271 272 276 280 282 285 283 283 287 294 298 299 303 305 302 304 305 291 272 260 254 250 234 217 212 206 195 189 183 186 189 193 196 198 199 202 204 210 218 222 222 225 227 231 227